Regional Weather Roundup
Issued by NWS

Home | Current Version | Previous Version | Text Only | Print | Product List | Glossary On
Versions: 1 2 3 4 5 6 7 8 9 10 11 12 13 14 15 16 17 18 19 20 21 22 23 24 25 26 27 28 29 30 31 32 33 34 35 36 37 38 39 40 41 42 43 44 45 46 47 48 49 50
000
ASUS43 KMPX 191810
RWRMN
WEATHER ROUNDUP FOR MINNESOTA
NATIONAL WEATHER SERVICE TWIN CITIES/CHANHASSEN MN
100 PM CDT TUE SEP 19 2017


NOTE: "FAIR" INDICATES FEW OR NO CLOUDS BELOW 12,000 FEET WITH NO
SIGNIFICANT WEATHER AND/OR OBSTRUCTIONS TO VISIBILITY. N/A MEANS
CURRENT SKY AND/OR WEATHER CONDITIONS ARE NOT AVAILABLE.

MNZ060>063-068>070-191900-
   Twin Cities Metro

CITY           SKY/WX    TMP DP  RH WIND       PRES   REMARKS
TWIN CITIES    PTSUNNY   75  65  70 SE15      29.86F
6HR MIN TEMP:  60; 6HR MAX TEMP:  76;

ST PAUL        PTSUNNY   75  65  70 SE10      29.87F
CRYSTAL        MOSUNNY   74  61  63 SE13G20   29.84F
BLAINE         PTSUNNY   75  64  69 SE12G17   29.86F
LAKEVILLE      MOSUNNY   73  63  68 SE13G18   29.86F
EDEN PRAIRIE   PTSUNNY   76  65  68 SE14G20   29.84F
6HR MIN TEMP:  59; 6HR MAX TEMP:  76;

SOUTH ST PAUL  MOSUNNY   74  64  69 SE12      29.86F
LAKE ELMO      PTSUNNY   73  64  73 SE12G17   29.89F
$$
MNZ001>005-007-008-013>017-022>024-027-028-191900-
   Northwest Minnesota

CITY           SKY/WX    TMP DP  RH WIND       PRES   REMARKS
BEMIDJI        CLOUDY    62  59  90 SE14G21   29.78F
HALLOCK        MOSUNNY   70  61  73 SE16G23   29.66F
ROSEAU           N/A     64  57  77 SE16      29.75F
WARROAD        CLOUDY    63  59  88 E12       29.77F
THIEF RVR FALL PTSUNNY   71  59  65 SE22G30   29.71F
CROOKSTON      MOSUNNY   73  61  64 S24       29.66F
FOSSTON        CLOUDY    70  59  68 SE16G23   29.73S
DETROIT LAKES  MOSUNNY   70  61  73 S17G24    29.74S
MOORHEAD       MOSUNNY   75  61  60 SE28G35   29.66F
PARK RAPIDS    CLOUDY    70  60  70 SE24G30   29.77F
MAHNOMEN       FAIR      71  60  69 S17G26    29.71F
$$
MNZ006-009>011-018-025>026-191900-
   North Central Minnesota

CITY           SKY/WX    TMP DP  RH WIND       PRES   REMARKS
BAUDETTE       CLOUDY    62  58  86 SE12      29.80F
FLAG ISLAND    CLOUDY    57  55  94 SE6       29.79F
INTL FALLS     CLOUDY    64  57  78 SE10      29.85F
6HR MIN TEMP:  54; 6HR MAX TEMP:  64;

WASKISH        CLOUDY    66  61  82 SE10G16   29.80S
BIG FORK       MOSUNNY   68  61  77 SE8       29.84F
LONGVILLE      CLOUDY    66  61  82 SE10G17   29.82F
GRAND RAPIDS   CLOUDY    64  60  87 SE8       29.87F
CRANE LAKE     CLOUDY    64  59  82 SE7       29.91F
ORR            CLOUDY    64  55  72 SE8G16    29.86F
COOK           CLOUDY    64  57  77 SE8G16    29.89F
WALKER         CLOUDY    62  60  91 SE8       29.79F
$$
MNZ012-019>021-037-191900-
   Northeast Minnesota

CITY           SKY/WX    TMP DP  RH WIND       PRES   REMARKS
DULUTH         MOSUNNY   66  59  78 SE13      29.92F
6HR MIN TEMP:  55; 6HR MAX TEMP:  66;

ELY            CLOUDY    64  55  72 SE10      29.93F
HIBBING        CLOUDY    65  59  81 SE10      29.89F
EVELETH        CLOUDY    65  60  83 SE9       29.91F
DULUTH HARBOR  CLOUDY    63  59  88 NE16      29.92F
TWO HARBORS    MOSUNNY   68  59  73 E9        29.93F
GRAND MARAIS     N/A     61  56  83 E12       29.98F
G MARAIS ARPRT   N/A     61  52  72 E3        30.01F
$$
MNZ029>031-032-039>041-046>048-054>057-064-191900-
   West Central Minnesota

CITY           SKY/WX    TMP DP  RH WIND       PRES   REMARKS
FERGUS FALLS   MOSUNNY   73  66  78 SE17G26   29.70F
WHEATON        CLOUDY    72  63  73 SE26G32   29.69F
MORRIS         CLOUDY    72  64  78 SE22G30   29.71F
ALEXANDRIA     CLOUDY    68  63  84 SE18G29   29.78F
ELBOW LAKE     PTSUNNY   70  64  79 E16G28    29.72F HAZE
WADENA         CLOUDY    66  61  82 SE18G25   29.77S
GLENWOOD       CLOUDY    70  64  83 SE17G30   29.77F
APPLETON       CLOUDY    73  63  68 SE18G25   29.71F
BENSON         CLOUDY    72  64  78 S20G25    29.75F
ORTONVILLE     CLOUDY    72  64  78 NE14G24   29.69F
MADISON        CLOUDY    75  66  73 SE16G29   29.71F
WILLMAR        CLOUDY    72  66  83 SE14G24   29.78F
$$
MNZ033>034-036-042>043-049>051-058-059-191900-
   Central Minnesota

CITY           SKY/WX    TMP DP  RH WIND       PRES   REMARKS
ST CLOUD       MOSUNNY   74  64  71 SE15G23   29.82F
6HR MIN TEMP:  57; 6HR MAX TEMP:  74;

PAYNESVILLE    CLOUDY    70  64  82 SE17      29.80F
AITKIN         CLOUDY    66  61  82 E10       29.84F
PINE RIVER     CLOUDY    64  59  82 SE13G20   29.85F
BRAINERD       CLOUDY    66  61  84 SE12G20   29.82F
STAPLES        CLOUDY    66  61  82 SE13G22   29.79F
LONG PRAIRIE   CLOUDY    68  63  83 E17       29.79F
LITTLE FALLS   PTSUNNY   72  57  60 SE10G16   29.81
LITCHFIELD     MOSUNNY   72  66  83 SE20      29.81F
BUFFALO        MOSUNNY   73  62  67 SE14      29.84F
MAPLE LAKE     MOSUNNY   75  66  72 SE7G17    29.84F
HUTCHINSON     MOSUNNY   74  66  76 E16       29.82F
$$
MNZ037-044-045-052-053-191900-
   East Central Minnesota

CITY           SKY/WX    TMP DP  RH WIND       PRES   REMARKS
PRINCETON      MOSUNNY   75  64  69 SE12G17   29.85F
MORA           MOSUNNY   70  61  73 SE8G20    29.88F
CAMBRIDGE      MOSUNNY   75  61  60 SE12      29.87F
RUSH CITY      PTSUNNY   72  62  69 SE10G21   29.88F
MOOSE LAKE     MOSUNNY   72  61  68 SE5       29.87F
HINCKLEY       MOCLDY    72  63  73 SE9G16    29.88F
CLOQUET        PTSUNNY   66  57  72 SE7       29.91F
MCGREGOR       PTSUNNY   68  61  77 SE9       29.88F
$$
MNZ071>073-080-081-089-090-097-098-191900-
   Southwest Minnesota

CITY           SKY/WX    TMP DP  RH WIND       PRES   REMARKS
MONTEVIDEO     CLOUDY    72  64  78 S18G24    29.73F
GRANITE FALLS  CLOUDY    73  66  80 SE13G21   29.76F
CANBY          CLOUDY    71  66  82 E14       29.73S
MARSHALL       CLOUDY    73  66  78 SE26      29.73F
REDWOOD FALLS  CLOUDY    73  63  70 SE18G28   29.76F
OLIVIA         CLOUDY    72  64  78 SE17G25   29.77F
PIPESTONE      CLOUDY    72  66  83 S14G22    29.73F
WORTHINGTON    CLOUDY    71  66  84 SE20G26   29.77F
JACKSON        CLOUDY    70  63  78 SE20      29.82F
TRACY          CLOUDY    72  67  84 S17G28    29.75F
SLAYTON        CLOUDY    69  64  83 SE18G25   29.77F
$$
MNZ065>067-074>077-082>085-091>093-191900-
   South Central Minnesota

CITY           SKY/WX    TMP DP  RH WIND       PRES   REMARKS
MANKATO        MOSUNNY   72  64  76 SE17G25   29.83F
NEW ULM        PTSUNNY   72  64  78 SE17G23   29.80F
ST JAMES       PTSUNNY   73  64  73 SE20      29.81F
FAIRMONT       MOSUNNY   74  65  73 SE23      29.81F
GLENCOE        MOSUNNY   75  67  77 SE15G22   29.82F
FARIBAULT      SUNNY     75  63  64 SE14G23   29.86F
OWATONNA       MOSUNNY   79  64  61 SE14      29.87F
WASECA         MOSUNNY   73  63  68 SE16G22   29.87F
ALBERT LEA     SUNNY     79  64  61 S15G22    29.87F
$$
MNZ078>079-086>088-094>096-191900-
   Southeast Minnesota

CITY           SKY/WX    TMP DP  RH WIND       PRES   REMARKS
ROCHESTER      SUNNY     74  63  68 SE13      29.92S
6HR MIN TEMP:  57; 6HR MAX TEMP:  74;

RED WING       SUNNY     75  61  60 SE14      29.88F
STANTON        MOSUNNY   77  63  61 SE12G21   29.86F
DODGE CENTER   MOSUNNY   75  61  60 SE13G18   29.90S
WINONA         SUNNY     73  61  64 E8        29.92F
AUSTIN         SUNNY     75  63  64 SE10G21   29.88F
PRESTON        SUNNY     73  60  65 SE10G17   29.93F
$$
ABBREVIATIONS USED IN REMARKS
   TC - TEMPERATURES IN CELSIUS
  WCI - WIND CHILL INDEX
   HX - HEAT INDEX
  VSB - VISIBILITY
$$




USA.gov is the U.S. government's official web portal to all federal, state and local government web resources and services.